This demonstration page uses our WeatherBlox Daily Observations layout. Learn more.

Hourly Observations for January 9, 2018

Temp ( °F °C ) Dew Point ( °F °C ) Humidity (%) Winds ( mph kmh ) Pressure ( in mb ) Visibility ( mi km ) Precip ( " mm )
12:15 am 00:15 Clear 39 4.1 28 -2.2 64 64 S 12 19 30 1016 10 16.0934 0 0
12:35 am 00:35 Clear 39 4.1 28 -2.3 63 63 S 9 15 30 1016 10 16.0934 0 0
12:55 am 00:55 Clear 39 4 28 -2.5 63 63 S 9 15 30 1016 10 16.0934 0 0
1:15 am 01:15 Clear 39 3.7 27 -2.7 63 63 S 12 19 29.97 1015 10 16.0934 0 0
1:35 am 01:35 Clear 39 3.7 27 -3 62 62 S 8 13 29.97 1015 10 16.0934 0 0
1:55 am 01:55 Clear 38 3.2 27 -3 64 64 S 6 9 29.97 1015 10 16.0934 0 0
2:15 am 02:15 Clear 37 2.5 26 -3.1 67 67 S 9 15 29.97 1015 10 16.0934 0 0
2:35 am 02:35 Clear 37 2.5 26 -3.2 66 66 S 8 13 29.97 1015 10 16.0934 0 0
2:55 am 02:55 Clear 36 2.2 26 -3.3 67 67 S 8 13 29.97 1015 10 16.0934 0 0
3:15 am 03:15 Clear 36 2.3 26 -3.5 66 66 S 7 11 29.97 1015 10 16.0934 0 0
3:35 am 03:35 Clear 35 1.6 26 -3.6 69 69 SSE 7 11 30 1016 10 16.0934 0 0
3:55 am 03:55 Clear 35 1.5 26 -3.6 69 69 SSE 7 11 30 1016 10 16.0934 0 0
4:15 am 04:15 Clear 34 1.2 26 -3.6 71 71 SSE 8 13 29.97 1015 10 16.0934 0 0
4:35 am 04:35 Clear 34 1.1 26 -3.5 72 72 SSE 7 11 29.97 1015 10 16.0934 0 0
4:55 am 04:55 Clear 35 1.9 26 -3.3 69 69 SSE 7 11 29.94 1014 10 16.0934 0 0
5:15 am 05:15 Clear 35 1.9 26 -3.3 69 69 S 6 9 29.94 1014 10 16.0934 0 0
5:35 am 05:35 Clear 35 1.5 26 -3.5 70 70 SSE 8 13 29.91 1013 10 16.0934 0 0
5:55 am 05:55 Clear 33 0.8 26 -3.5 73 73 SSE 9 15 29.94 1014 10 16.0934 0 0
6:15 am 06:15 Clear 35 1.4 26 -3.2 72 72 SSE 9 15 29.91 1013 10 16.0934 0 0
6:35 am 06:35 Clear 35 1.5 26 -3.2 71 71 SSE 9 15 29.97 1015 10 16.0934 0 0
6:55 am 06:55 Clear 35 1.5 26 -3.2 71 71 SSE 8 13 29.97 1015 10 16.0934 0 0
7:15 am 07:15 Clear 33 0.8 26 -3.3 74 74 SSE 13 20 29.94 1014 10 16.0934 0 0
7:35 am 07:35 Clear 33 0.8 26 -3.2 75 75 SSE 9 15 29.94 1014 10 16.0934 0 0
7:55 am 07:55 Clear 34 1 27 -3 75 75 SSE 12 19 29.94 1014 10 16.0934 0 0
8:15 am 08:15 Sunny 34 1.1 27 -3 74 74 SSE 14 22 29.94 1014 10 16.0934 0 0
8:35 am 08:35 Sunny 33 0.8 27 -3 76 76 SSE 10 17 29.94 1014 10 16.0934 0 0
8:55 am 08:55 Sunny 34 1.1 27 -2.7 76 76 SSE 10 17 29.94 1014 10 16.0934 0 0
9:15 am 09:15 Sunny 35 1.7 28 -2.5 74 74 SSE 7 11 29.94 1014 10 16.0934 0 0
9:35 am 09:35 Sunny 37 2.5 28 -2.1 72 72 SSE 9 15 29.91 1013 10 16.0934 0 0
9:55 am 09:55 Sunny 38 3.6 29 -1.7 69 69 S 8 13 29.91 1013 10 16.0934 0 0
10:15 am 10:15 Sunny 40 4.3 29 -1.8 65 65 SSE 12 19 29.91 1013 10 16.0934 0 0
10:35 am 10:35 Sunny 41 5.1 29 -1.6 62 62 S 9 15 29.91 1013 10 16.0934 0 0
10:55 am 10:55 Sunny 42 5.6 29 -1.5 61 61 S 12 19 29.88 1012 10 16.0934 0 0
11:15 am 11:15 Sunny 43 5.9 29 -1.7 59 59 S 14 22 29.85 1011 10 16.0934 0 0
11:35 am 11:35 Sunny 45 7.2 29 -1.4 55 55 S 10 17 29.85 1011 10 16.0934 0 0
11:55 am 11:55 Sunny 46 7.8 30 -1.1 54 54 S 12 19 29.83 1010 10 16.0934 0 0
12:15 pm 12:15 Sunny 47 8.5 30 -1 52 52 S 9 15 29.8 1009 10 16.0934 0 0
12:35 pm 12:35 Sunny 48 9.1 30 -0.9 50 50 SSW 12 19 29.8 1009 10 16.0934 0 0
12:55 pm 12:55 Sunny 49 9.7 30 -1 48 48 S 10 17 29.8 1009 10 16.0934 0 0
1:15 pm 13:15 Sunny 50 10 30 -0.9 47 47 S 9 15 29.8 1009 10 16.0934 0 0
1:35 pm 13:35 Sunny 50 10.2 30 -1 46 46 SW 6 9 29.8 1009 10 16.0934 0 0
1:55 pm 13:55 Sunny 51 10.5 30 -1.1 45 45 SSW 7 11 29.74 1007 10 16.0934 0 0
2:15 pm 14:15 Sunny 52 10.9 30 -1.1 44 44 SW 8 13 29.77 1008 10 16.0934 0 0
2:35 pm 14:35 Sunny 52 11.3 30 -1.1 42 42 SSW 8 13 29.74 1007 10 16.0934 0 0
2:55 pm 14:55 Sunny 52 11.2 30 -1.2 42 42 S 9 15 29.74 1007 10 16.0934 0 0
3:15 pm 15:15 Sunny 53 11.4 30 -1 43 43 SSW 10 17 29.74 1007 10 16.0934 0 0
3:35 pm 15:35 Sunny 53 11.5 30 -1.1 42 42 S 9 15 29.74 1007 10 16.0934 0 0
3:55 pm 15:55 Sunny 53 11.5 30 -1 42 42 SSW 9 15 29.71 1006 10 16.0934 0 0
4:15 pm 16:15 Sunny 53 11.6 30 -1.1 42 42 SSW 10 17 29.71 1006 10 16.0934 0 0
4:35 pm 16:35 Sunny 53 11.5 30 -1 42 42 SSW 8 13 29.74 1007 10 16.0934 0 0
4:55 pm 16:55 Sunny 51 10.6 31 -0.8 45 45 SSW 5 7 29.74 1007 10 16.0934 0 0
5:15 pm 17:15 Sunny 50 10 31 -0.8 47 47 SSW 3 6 29.77 1008 10 16.0934 0 0
5:35 pm 17:35 Clear 45 7.3 29 -1.8 53 53 Calm 29.74 1007 10 16.0934 0 0
5:55 pm 17:55 Clear 41 4.8 29 -1.8 63 63 SSE 3 6 29.77 1008 10 16.0934 0 0
6:15 pm 18:15 Clear 41 5.1 28 -2 60 60 SSE 7 11 29.8 1009 10 16.0934 0 0
6:35 pm 18:35 Clear 40 4.3 28 -2.2 63 63 SSE 6 9 29.77 1008 10 16.0934 0 0
6:55 pm 18:55 Clear 41 4.8 28 -2.3 60 60 SSE 7 11 29.77 1008 10 16.0934 0 0
7:15 pm 19:15 Clear 38 3.6 28 -2.5 65 65 SE 6 9 29.77 1008 10 16.0934 0 0
7:35 pm 19:35 Clear 38 3.6 28 -2.5 65 65 SSE 6 9 29.77 1008 10 16.0934 0 0
7:55 pm 19:55 Clear 38 3.4 28 -2.2 67 67 S 8 13 29.77 1008 10 16.0934 0 0
8:15 pm 20:15 Clear 39 3.9 28 -2.1 65 65 S 7 11 29.77 1008 10 16.0934 0 0
8:35 pm 20:35 Clear 38 3.3 28 -2.5 66 66 S 3 6 29.8 1009 10 16.0934 0 0
8:55 pm 20:55 Clear 40 4.5 29 -1.8 64 64 S 8 13 29.77 1008 10 16.0934 0 0
9:15 pm 21:15 Clear 40 4.5 29 -1.8 64 64 S 6 9 29.77 1008 10 16.0934 0 0
9:35 pm 21:35 Clear 38 3.2 28 -2.2 68 68 S 6 9 29.74 1007 10 16.0934 0 0
9:55 pm 21:55 Clear 37 2.9 28 -2.2 69 69 S 8 13 29.77 1008 10 16.0934 0 0
10:15 pm 22:15 Clear 38 3.1 28 -2.2 69 69 S 7 11 29.74 1007 10 16.0934 0 0
10:35 pm 22:35 Clear 39 3.9 29 -1.8 67 67 S 7 11 29.74 1007 10 16.0934 0 0
10:55 pm 22:55 Clear 39 4 29 -1.7 67 67 S 7 11 29.74 1007 10 16.0934 0 0
11:15 pm 23:15 Clear 37 2.6 28 -2.4 70 70 S 7 11 29.77 1008 10 16.0934 0 0
11:35 pm 23:35 Clear 35 1.7 27 -2.6 73 73 S 5 7 29.74 1007 10 16.0934 0 0
11:55 pm 23:55 Clear 35 1.7 28 -2.1 76 76 S 6 9 29.74 1007 10 16.0934 0 0

Powered by AerisWeather